TimeCST,TemperatureF,Dew PointF,Humidity,Sea Level PressureIn,VisibilityMPH,Wind Direction,Wind SpeedMPH,Gust SpeedMPH,PrecipitationIn,Events,Conditions,WindDirDegrees,DateUTC
12:53 AM,16.0,6.1,65,30.46,10.0,South,4.6,-,N/A,,Clear,190,2014-01-07 06:53:00
1:53 AM,18.0,6.1,60,30.44,10.0,SSW,5.8,-,N/A,,Clear,200,2014-01-07 07:53:00
2:53 AM,21.0,9.0,60,30.43,10.0,SSW,6.9,-,N/A,,Clear,200,2014-01-07 08:53:00
3:53 AM,25.0,9.0,51,30.41,10.0,SSW,8.1,-,N/A,,Clear,210,2014-01-07 09:53:00
4:53 AM,25.0,9.0,51,30.39,10.0,SSW,9.2,-,N/A,,Clear,200,2014-01-07 10:53:00
5:53 AM,24.1,10.0,55,30.38,10.0,SSW,8.1,-,N/A,,Clear,200,2014-01-07 11:53:00
6:53 AM,24.1,10.0,55,30.37,10.0,SSW,9.2,-,N/A,,Clear,200,2014-01-07 12:53:00
7:53 AM,24.1,10.0,55,30.37,10.0,South,8.1,-,N/A,,Clear,190,2014-01-07 13:53:00
8:53 AM,27.0,10.9,51,30.36,10.0,South,6.9,-,N/A,,Clear,180,2014-01-07 14:53:00
9:53 AM,34.0,12.0,40,30.37,10.0,SW,8.1,19.6,N/A,,Clear,220,2014-01-07 15:53:00
10:53 AM,37.0,12.9,37,30.35,10.0,SSW,13.8,-,N/A,,Clear,200,2014-01-07 16:53:00
11:53 AM,39.9,14.0,35,30.30,10.0,SSW,17.3,26.5,N/A,,Clear,210,2014-01-07 17:53:00
12:53 PM,45.0,14.0,29,30.24,10.0,SSW,15.0,23.0,N/A,,Clear,210,2014-01-07 18:53:00
1:53 PM,48.0,15.1,27,30.21,10.0,SSW,19.6,26.5,N/A,,Clear,200,2014-01-07 19:53:00
2:53 PM,48.0,14.0,26,30.19,10.0,SW,18.4,28.8,N/A,,Clear,220,2014-01-07 20:53:00
3:53 PM,48.9,14.0,25,30.18,10.0,SSW,12.7,23.0,N/A,,Clear,200,2014-01-07 21:53:00
4:53 PM,46.9,16.0,29,30.17,10.0,SSW,12.7,24.2,N/A,,Clear,200,2014-01-07 22:53:00
5:53 PM,43.0,17.1,35,30.16,10.0,South,8.1,-,N/A,,Clear,180,2014-01-07 23:53:00
6:53 PM,42.1,16.0,35,30.17,10.0,South,10.4,-,N/A,,Clear,180,2014-01-08 00:53:00
7:53 PM,43.0,14.0,31,30.18,10.0,South,15.0,24.2,N/A,,Clear,190,2014-01-08 01:53:00
8:53 PM,41.0,14.0,33,30.18,10.0,South,13.8,-,N/A,,Clear,180,2014-01-08 02:53:00
9:53 PM,39.0,12.9,34,30.16,10.0,South,16.1,23.0,N/A,,Clear,180,2014-01-08 03:53:00
10:53 PM,37.9,12.0,35,30.17,10.0,South,16.1,-,N/A,,Clear,190,2014-01-08 04:53:00
11:53 PM,37.0,10.9,34,30.16,10.0,South,15.0,23.0,N/A,,Clear,180,2014-01-08 05:53:00